TimeAKDT,TemperatureF,Dew PointF,Humidity,Sea Level PressureIn,VisibilityMPH,Wind Direction,Wind SpeedMPH,Gust SpeedMPH,PrecipitationIn,Events,Conditions,WindDirDegrees,DateUTC
12:54 AM,45.0,43.0,93,30.11,10.0,NW,6.9,-,N/A,,Overcast,310,2012-10-09 08:54:00
1:54 AM,44.1,43.0,96,30.11,10.0,WNW,5.8,-,N/A,,Overcast,300,2012-10-09 09:54:00
2:54 AM,44.1,42.1,93,30.10,10.0,NW,3.5,-,N/A,,Overcast,320,2012-10-09 10:54:00
3:03 AM,44.6,42.8,93,30.09,10.0,Calm,Calm,-,N/A,,Overcast,0,2012-10-09 11:03:00
3:54 AM,44.1,42.1,93,30.09,10.0,WNW,3.5,-,N/A,,Overcast,300,2012-10-09 11:54:00
4:54 AM,44.1,41.0,89,30.09,10.0,NW,3.5,-,N/A,,Overcast,320,2012-10-09 12:54:00
5:24 AM,42.8,41.0,93,30.08,7.0,NW,8.1,-,N/A,,Overcast,310,2012-10-09 13:24:00
5:54 AM,43.0,41.0,93,30.09,9.0,NW,5.8,-,N/A,,Overcast,310,2012-10-09 13:54:00
6:54 AM,43.0,41.0,93,30.09,10.0,NW,4.6,-,N/A,,Overcast,310,2012-10-09 14:54:00
7:29 AM,42.8,39.2,87,30.08,10.0,WNW,4.6,-,N/A,,Overcast,290,2012-10-09 15:29:00
7:54 AM,43.0,41.0,93,30.09,10.0,WNW,4.6,-,N/A,,Overcast,290,2012-10-09 15:54:00
8:28 AM,42.8,41.0,93,30.08,10.0,WNW,6.9,-,N/A,,Overcast,290,2012-10-09 16:28:00
8:54 AM,43.0,39.9,89,30.09,10.0,WNW,4.6,-,N/A,,Overcast,290,2012-10-09 16:54:00
9:54 AM,43.0,41.0,93,30.10,10.0,WNW,6.9,-,N/A,,Overcast,290,2012-10-09 17:54:00
10:54 AM,44.1,41.0,89,30.10,10.0,WNW,6.9,-,N/A,,Overcast,290,2012-10-09 18:54:00
11:54 AM,45.0,42.1,90,30.09,10.0,West,6.9,-,N/A,,Overcast,280,2012-10-09 19:54:00
12:30 PM,48.2,42.8,82,30.07,10.0,West,4.6,-,N/A,,Scattered Clouds,280,2012-10-09 20:30:00
12:54 PM,48.0,42.1,80,30.07,10.0,SSE,6.9,-,N/A,,Clear,150,2012-10-09 20:54:00
1:13 PM,46.4,42.8,87,30.07,10.0,SSE,5.8,-,N/A,,Mostly Cloudy,150,2012-10-09 21:13:00
1:22 PM,48.2,42.8,82,30.07,10.0,SSE,5.8,-,N/A,,Mostly Cloudy,160,2012-10-09 21:22:00
1:54 PM,46.9,42.1,83,30.07,10.0,SE,8.1,-,N/A,,Overcast,140,2012-10-09 21:54:00
2:54 PM,46.0,42.1,86,30.06,10.0,SE,6.9,-,N/A,,Overcast,140,2012-10-09 22:54:00
3:54 PM,46.0,42.1,86,30.07,10.0,ESE,5.8,-,N/A,,Overcast,120,2012-10-09 23:54:00
4:54 PM,45.0,42.1,90,30.07,10.0,Variable,4.6,-,N/A,,Overcast,0,2012-10-10 00:54:00
5:54 PM,45.0,42.1,90,30.07,10.0,Calm,Calm,-,N/A,,Overcast,0,2012-10-10 01:54:00
6:54 PM,45.0,42.1,90,30.09,10.0,Calm,Calm,-,N/A,,Overcast,0,2012-10-10 02:54:00
7:54 PM,44.1,42.1,93,30.09,10.0,Calm,Calm,-,N/A,,Overcast,0,2012-10-10 03:54:00
8:54 PM,44.1,42.1,93,30.10,10.0,Calm,Calm,-,N/A,,Overcast,0,2012-10-10 04:54:00
9:54 PM,43.0,42.1,97,30.11,10.0,Calm,Calm,-,N/A,,Overcast,0,2012-10-10 05:54:00
10:45 PM,42.8,42.8,100,30.10,10.0,West,5.8,-,N/A,,Overcast,280,2012-10-10 06:45:00
10:54 PM,43.0,42.1,97,30.12,10.0,WNW,3.5,-,N/A,,Overcast,290,2012-10-10 06:54:00
11:50 PM,42.8,42.8,100,30.11,10.0,Variable,3.5,-,N/A,,Overcast,0,2012-10-10 07:50:00
11:54 PM,43.0,42.1,97,30.12,10.0,WNW,9.2,-,N/A,,Overcast,290,2012-10-10 07:54:00